Tracking 18852 objects as of 23-Nov-2017
HD Live streaming from Space Station
objects crossing your sky now

FENGYUN 1C DEB

Track FENGYUN 1C DEB now!
10-day predictions


NORAD ID: 30471
Int'l Code: 1999-025AGJ
Perigee: 824.8 km
Apogee: 964.9 km
Inclination: 99.2 °
Period: 102.7 minutes
Semi major axis: 7265 km
RCS: 0.033 m2 (small)
Launch date: May 10, 1999
Source: People's Republic of China (PRC)
Launch site: Taiyaun Space Center, China (TSC)

Note: This is SATELLITE DEBRIS
aabbcc
Your satellite tracking list
Your tracking list is empty




NASA's NSSDC Master Catalog

Two Line Element Set (TLE):
1 30471U 99025AGJ 17326.59505292 +.00001220 +00000-0 +80044-3 0  9990
2 30471 099.2385 351.3314 0096403 138.6747 341.8872 14.01755021551270
Source of the keplerian elements: AFSPC